Weather History for KNYC - July, 2008

Change the Weather History Date:

Monday, July 7, 2008

  Actual Average Record
Temperature  
Mean Temperature 76 °F 76 °F  
Max Temperature 82 °F 84 °F 100 °F (2010)
Min Temperature 70 °F 68 °F 56 °F (1914)
Degree Days  
Heating Degree Days 0 0  
Month to date heating degree days 0 0  
Since 1 June heating degree days 19  
Since 1 July heating degree days 0 0  
Cooling Degree Days 11 11  
Month to date cooling degree days 74 76  
Year to date cooling degree days 387 357  
Since 1 June cooling degree days 288  
Growing Degree Days 26 (Base 50)    
Moisture  
Dew Point 68 °F    
Average Humidity 76    
Maximum Humidity 90    
Minimum Humidity 62    
Precipitation  
Precipitation 0.00 in 0.13 in 3.13 in (1984)
Month to date precipitation 0.57 0.88  
Year to date precipitation 24.93 25.08  
Snow  
Snow 0.00 in 0.00 in 0.00 in (2002)
Month to date snowfall 0.0 0.0  
Since 1 July snowfall 0.0 0.0  
Snow Depth 0.00 in    
Sea Level Pressure  
Sea Level Pressure 30.05 in    
Wind  
Wind Speed 4 mph (NE)    
Max Wind Speed 9 mph    
Max Gust Speed 13 mph    
Visibility 8 miles    
Events      
T = Trace of Precipitation, MM = Missing Value Source: NWS Daily Summary

Daily Weather History Graph

Daily Weather History Graph

Search for Another Location

Airport or City:

Trip Planner

Search our weather history database for the weather conditions in past years. The results will help you decide how hot, cold, wet, or windy it might be!

Date:

Astronomy

Jul. 07, 2008 Rise Set
Actual Time 5:31 AM EDT 8:29 PM EDT
Civil Twilight 4:58 AM EDT 9:02 PM EDT
Nautical Twilight 4:17 AM EDT 9:44 PM EDT
Astronomical Twilight 3:28 AM EDT 10:32 PM EDT
Moon 10:44 AM EDT (7/7) 11:18 PM EDT (7/7)
Length of Visible Light 16h 03m
Length of Day
14h 57m
Waxing Crescent, 25% of the Moon is Illuminated
Jul 7
Waxing Crescent
Jul 10
First Quarter
Jul 18
Full
Jul 25
Last Quarter
Aug 1
New

Hourly Weather History & Observations

Time (EDT) Temp. Heat Index Dew Point Humidity Pressure Visibility Wind Dir Wind Speed Gust Speed Precip Events Conditions
12:11 AM 71.6 °F - 68.0 °F 88% 30.10 in 8.0 mi Variable 4.6 mph - N/A   Overcast
12:51 AM 72.0 °F - 68.0 °F 87% 30.07 in 9.0 mi Variable 4.6 mph - N/A   Overcast
12:58 AM 73.4 °F - 66.2 °F 78% 30.10 in 9.0 mi Calm Calm - N/A   Overcast
1:26 AM 71.6 °F - 66.2 °F 83% 30.10 in 10.0 mi Variable 4.6 mph - N/A   Overcast
1:51 AM 72.0 °F - 66.9 °F 84% 30.07 in 10.0 mi WSW 5.8 mph - N/A   Mostly Cloudy
2:11 AM 71.6 °F - 66.2 °F 83% 30.10 in 10.0 mi West 3.5 mph - N/A   Mostly Cloudy
2:51 AM 72.0 °F - 66.9 °F 84% 30.06 in 9.0 mi Calm Calm - N/A   Overcast
3:28 AM 71.6 °F - 66.2 °F 83% 30.09 in 7.0 mi Calm Calm - N/A   Overcast
3:38 AM 71.6 °F - 66.2 °F 83% 30.08 in 7.0 mi Calm Calm - N/A   Mostly Cloudy
3:48 AM 71.6 °F - 66.2 °F 83% 30.08 in 7.0 mi Calm Calm - N/A   Scattered Clouds
3:51 AM 72.0 °F - 66.9 °F 84% 30.05 in 7.0 mi Calm Calm - N/A   Partly Cloudy
4:31 AM 71.6 °F - 66.2 °F 83% 30.07 in 7.0 mi Calm Calm - N/A   Mostly Cloudy
4:51 AM 71.1 °F - 66.9 °F 87% 30.05 in 6.0 mi NNE 4.6 mph - N/A   Mostly Cloudy
5:08 AM 71.6 °F - 68.0 °F 88% 30.08 in 6.0 mi Calm Calm - N/A   Mostly Cloudy
5:51 AM 72.0 °F - 68.0 °F 87% 30.07 in 7.0 mi Calm Calm - N/A   Overcast
6:51 AM 72.0 °F - 68.0 °F 87% 30.07 in 5.0 mi East 3.5 mph - N/A   Overcast
7:51 AM 73.0 °F - 68.0 °F 84% 30.07 in 5.0 mi ENE 4.6 mph - N/A   Haze
8:09 AM 73.4 °F - 68.0 °F 83% 30.10 in 5.0 mi East 5.8 mph - N/A   Haze
8:51 AM 75.0 °F - 66.9 °F 76% 30.08 in 7.0 mi Variable 5.8 mph - N/A   Overcast
9:51 AM 75.9 °F - 66.9 °F 74% 30.08 in 8.0 mi NE 5.8 mph - N/A   Mostly Cloudy
10:51 AM 75.9 °F - 68.0 °F 76% 30.08 in 7.0 mi Variable 4.6 mph - N/A   Overcast
11:15 AM 78.8 °F - 66.2 °F 65% 30.10 in 8.0 mi NE 6.9 mph - N/A   Mostly Cloudy
11:51 AM 80.1 °F 82.3 °F 66.9 °F 64% 30.07 in 8.0 mi Variable 5.8 mph - N/A   Mostly Cloudy
12:51 PM 80.1 °F 82.7 °F 68.0 °F 67% 30.06 in 8.0 mi Calm Calm - N/A   Partly Cloudy
1:51 PM 81.0 °F 84.4 °F 70.0 °F 69% 30.04 in 8.0 mi Variable 4.6 mph - N/A   Mostly Cloudy
2:36 PM 78.8 °F - 69.8 °F 74% 30.07 in 8.0 mi Variable 5.8 mph - N/A   Overcast
2:51 PM 79.0 °F - 70.0 °F 74% 30.04 in 9.0 mi Variable 4.6 mph - N/A   Overcast
3:27 PM 78.8 °F - 69.8 °F 74% 30.05 in 9.0 mi Variable 3.5 mph - N/A   Overcast
3:51 PM 79.0 °F - 70.0 °F 74% 30.02 in 9.0 mi Variable 4.6 mph - N/A   Overcast
4:51 PM 79.0 °F - 70.0 °F 74% 30.00 in 10.0 mi Variable 3.5 mph - N/A   Overcast
5:09 PM 78.8 °F - 69.8 °F 74% 30.03 in 10.0 mi Variable 3.5 mph - N/A   Mostly Cloudy
5:17 PM 78.8 °F - 71.6 °F 78% 30.03 in 10.0 mi Variable 6.9 mph - N/A   Mostly Cloudy
5:51 PM 78.1 °F - 70.0 °F 76% 30.00 in 10.0 mi Variable 4.6 mph - N/A   Partly Cloudy
6:51 PM 79.0 °F - 70.0 °F 74% 29.99 in 9.0 mi Variable 5.8 mph - N/A   Scattered Clouds
7:01 PM 78.8 °F - 69.8 °F 74% 30.02 in 9.0 mi Variable 5.8 mph - N/A   Mostly Cloudy
7:44 PM 78.8 °F - 69.8 °F 74% 30.02 in 8.0 mi Variable 4.6 mph - N/A   Scattered Clouds
7:51 PM 78.1 °F - 70.0 °F 76% 29.99 in 8.0 mi Calm Calm - N/A   Partly Cloudy
8:51 PM 77.0 °F - 69.1 °F 76% 29.99 in 10.0 mi Variable 5.8 mph - N/A   Partly Cloudy
9:51 PM 78.1 °F - 68.0 °F 71% 30.01 in 10.0 mi Variable 4.6 mph - N/A   Partly Cloudy
10:51 PM 77.0 °F - 69.1 °F 76% 30.01 in 10.0 mi Variable 4.6 mph - N/A   Partly Cloudy
11:51 PM 75.9 °F - 69.1 °F 79% 30.01 in 10.0 mi SW 4.6 mph - N/A   Clear